Time,TemperatureF,DewpointF,PressureIn,WindDirection,WindDirectionDegrees,WindSpeedMPH,WindSpeedGustMPH,Humidity,HourlyPrecipIn,Conditions,Clouds,dailyrainin,SoftwareType,DateUTC
2013-09-23 00:01:00,-999.0,-99.9,-100.00,NNW,348,1.0,-999.0,-999,-99.99,,,-99.99,,2013-09-23 07:01:00,
2013-09-23 00:12:00,-999.0,-99.9,-100.00,NNW,348,1.0,-999.0,-999,-99.99,,,-99.99,,2013-09-23 07:12:00,
2013-09-23 00:22:00,-999.0,-99.9,-100.00,NNW,348,1.0,-999.0,-999,-99.99,,,-99.99,,2013-09-23 07:22:00,
2013-09-23 01:11:00,66.0,-99.9,-100.00,North,-999,-999.0,-999.0,-999,-99.99,,,-99.99,,2013-09-23 08:11:00,
2013-09-23 01:23:00,-999.0,-99.9,-100.00,North,-999,1.0,-999.0,-999,-99.99,,,-99.99,,2013-09-23 08:23:00,
2013-09-23 01:32:00,-999.0,-99.9,-100.00,North,-999,1.0,-999.0,-999,-99.99,,,-99.99,,2013-09-23 08:32:00,
2013-09-23 01:42:00,-999.0,-99.9,-100.00,North,-999,1.0,-999.0,-999,-99.99,,,-99.99,,2013-09-23 08:42:00,
2013-09-23 01:52:00,-999.0,-99.9,-100.00,North,-999,1.0,-999.0,-999,-99.99,,,-99.99,,2013-09-23 08:52:00,
2013-09-23 02:02:00,-999.0,-99.9,-100.00,North,-999,1.0,-999.0,-999,-99.99,,,-99.99,,2013-09-23 09:02:00,
2013-09-23 02:43:00,-999.0,-99.9,-100.00,NNW,343,1.0,-999.0,-999,-99.99,,,-99.99,,2013-09-23 09:43:00,
2013-09-23 02:53:00,-999.0,-99.9,-100.00,NNW,343,1.0,-999.0,-999,-99.99,,,-99.99,,2013-09-23 09:53:00,
2013-09-23 03:04:00,-999.0,-99.9,-100.00,NNW,343,1.0,-999.0,-999,-99.99,,,-99.99,,2013-09-23 10:04:00,
2013-09-23 03:13:00,-999.0,-99.9,-100.00,NNW,343,1.0,-999.0,-999,-99.99,,,-99.99,,2013-09-23 10:13:00,
2013-09-23 07:12:00,66.0,-99.9,-100.00,North,-999,-999.0,-999.0,-999,-99.99,,,-99.99,,2013-09-23 14:12:00,
2013-09-23 07:43:00,68.0,-99.9,-100.00,North,-999,-999.0,-999.0,-999,-99.99,,,-99.99,,2013-09-23 14:43:00,
2013-09-23 08:54:00,70.0,-99.9,-100.00,North,-999,-999.0,-999.0,-999,-99.99,,,-99.99,,2013-09-23 15:54:00,
2013-09-23 09:04:00,70.0,-99.9,-100.00,North,-999,-999.0,-999.0,-999,-99.99,,,-99.99,,2013-09-23 16:04:00,
2013-09-23 09:12:00,70.0,-99.9,-100.00,North,-999,-999.0,-999.0,-999,-99.99,,,-99.99,,2013-09-23 16:12:00,
2013-09-23 09:42:00,75.0,-99.9,-100.00,North,-999,-999.0,-999.0,-999,-99.99,,,-99.99,,2013-09-23 16:42:00,
2013-09-23 10:24:00,75.0,-99.9,-100.00,North,-999,-999.0,-999.0,-999,-99.99,,,-99.99,,2013-09-23 17:24:00,
2013-09-23 10:34:00,75.0,-99.9,-100.00,North,-999,-999.0,-999.0,-999,-99.99,,,-99.99,,2013-09-23 17:34:00,
2013-09-23 11:33:00,-999.0,-99.9,-100.00,NE,45,0.0,-999.0,-999,-99.99,,,-99.99,,2013-09-23 18:33:00,
2013-09-23 11:42:00,-999.0,-99.9,-100.00,NE,45,0.0,-999.0,-999,-99.99,,,-99.99,,2013-09-23 18:42:00,
2013-09-23 11:52:00,-999.0,-99.9,-100.00,NNE,22,8.0,-999.0,-999,-99.99,,,-99.99,,2013-09-23 18:52:00,
2013-09-23 13:42:00,-999.0,-99.9,-100.00,SE,140,2.0,-999.0,-999,-99.99,,,-99.99,,2013-09-23 20:42:00,
2013-09-23 13:52:00,-999.0,-99.9,-100.00,SE,140,2.0,-999.0,-999,-99.99,,,-99.99,,2013-09-23 20:52:00,
2013-09-23 14:02:00,-999.0,-99.9,-100.00,SE,140,2.0,-999.0,-999,-99.99,,,-99.99,,2013-09-23 21:02:00,
2013-09-23 14:12:00,-999.0,-99.9,-100.00,North,-999,2.0,-999.0,-999,-99.99,,,-99.99,,2013-09-23 21:12:00,
2013-09-23 14:23:00,81.0,-99.9,-100.00,North,-999,-999.0,-999.0,-999,-99.99,,,-99.99,,2013-09-23 21:23:00,
2013-09-23 14:34:00,-999.0,-99.9,-100.00,North,-999,2.0,-999.0,-999,-99.99,,,-99.99,,2013-09-23 21:34:00,
2013-09-23 14:44:00,-999.0,-99.9,-100.00,North,-999,2.0,-999.0,-999,-99.99,,,-99.99,,2013-09-23 21:44:00,
2013-09-23 14:54:00,-999.0,-99.9,-100.00,North,-999,2.0,-999.0,-999,-99.99,,,-99.99,,2013-09-23 21:54:00,
2013-09-23 15:04:00,-999.0,-99.9,-100.00,North,-999,2.0,-999.0,-999,-99.99,,,-99.99,,2013-09-23 22:04:00,
2013-09-23 17:12:00,-999.0,-99.9,-100.00,East,101,1.0,-999.0,-999,-99.99,,,-99.99,,2013-09-24 00:12:00,
2013-09-23 17:22:00,-999.0,-99.9,-100.00,East,101,1.0,-999.0,-999,-99.99,,,-99.99,,2013-09-24 00:22:00,
2013-09-23 17:32:00,-999.0,-99.9,-100.00,North,-999,1.0,-999.0,-999,-99.99,,,-99.99,,2013-09-24 00:32:00,
2013-09-23 17:43:00,-999.0,-99.9,-100.00,North,-999,1.0,-999.0,-999,-99.99,,,-99.99,,2013-09-24 00:43:00,
2013-09-23 17:52:00,83.0,-99.9,-100.00,North,-999,-999.0,-999.0,-999,-99.99,,,-99.99,,2013-09-24 00:52:00,
2013-09-23 18:02:00,83.0,-99.9,-100.00,North,-999,-999.0,-999.0,-999,-99.99,,,-99.99,,2013-09-24 01:02:00,
2013-09-23 18:12:00,83.0,-99.9,-100.00,North,-999,-999.0,-999.0,-999,-99.99,,,-99.99,,2013-09-24 01:12:00,
2013-09-23 18:22:00,83.0,-99.9,-100.00,North,-999,-999.0,-999.0,-999,-99.99,,,-99.99,,2013-09-24 01:22:00,
2013-09-23 18:52:00,78.0,-99.9,-100.00,North,-999,-999.0,-999.0,-999,-99.99,,,-99.99,,2013-09-24 01:52:00,
2013-09-23 19:02:00,78.0,-99.9,-100.00,North,-999,-999.0,-999.0,-999,-99.99,,,-99.99,,2013-09-24 02:02:00,
2013-09-23 19:52:00,74.0,-99.9,-100.00,North,-999,-999.0,-999.0,-999,-99.99,,,-99.99,,2013-09-24 02:52:00,
2013-09-23 20:03:00,74.0,-99.9,-100.00,North,-999,-999.0,-999.0,-999,-99.99,,,-99.99,,2013-09-24 03:03:00,
2013-09-23 20:12:00,74.0,-99.9,-100.00,North,-999,-999.0,-999.0,-999,-99.99,,,-99.99,,2013-09-24 03:12:00,
2013-09-23 20:35:00,-999.0,-99.9,-100.00,North,-999,1.0,-999.0,-999,-99.99,,,-99.99,,2013-09-24 03:35:00,
2013-09-23 20:45:00,-999.0,-99.9,-100.00,North,-999,1.0,-999.0,-999,-99.99,,,-99.99,,2013-09-24 03:45:00,
2013-09-23 20:55:00,-999.0,-99.9,-100.00,NNW,337,1.0,-999.0,-999,-99.99,,,-99.99,,2013-09-24 03:55:00,
2013-09-23 21:14:00,71.0,-99.9,-100.00,North,-999,-999.0,-999.0,-999,-99.99,,,-99.99,,2013-09-24 04:14:00,
2013-09-23 21:24:00,71.0,-99.9,-100.00,North,-999,-999.0,-999.0,-999,-99.99,,,-99.99,,2013-09-24 04:24:00,
2013-09-23 21:44:00,-999.0,-99.9,-100.00,NNW,337,3.0,-999.0,-999,-99.99,,,-99.99,,2013-09-24 04:44:00,
2013-09-23 21:54:00,-999.0,-99.9,-100.00,NNW,337,3.0,-999.0,-999,-99.99,,,-99.99,,2013-09-24 04:54:00,
2013-09-23 22:03:00,-999.0,-99.9,-100.00,NNW,337,3.0,-999.0,-999,-99.99,,,-99.99,,2013-09-24 05:03:00,
2013-09-23 22:23:00,-999.0,-99.9,-100.00,NNW,337,4.0,-999.0,-999,-99.99,,,-99.99,,2013-09-24 05:23:00,
2013-09-23 22:43:00,69.0,-99.9,-100.00,North,-999,1.0,-999.0,-999,-99.99,,,-99.99,,2013-09-24 05:43:00,
2013-09-23 22:53:00,-999.0,-99.9,-100.00,NW,315,4.0,-999.0,-999,-99.99,,,-99.99,,2013-09-24 05:53:00,
2013-09-23 23:03:00,-999.0,-99.9,-100.00,NW,315,4.0,-999.0,-999,-99.99,,,-99.99,,2013-09-24 06:03:00,
2013-09-23 23:13:00,-999.0,-99.9,-100.00,NW,315,4.0,-999.0,-999,-99.99,,,-99.99,,2013-09-24 06:13:00,
2013-09-23 23:22:00,-999.0,-99.9,-100.00,NW,315,4.0,-999.0,-999,-99.99,,,-99.99,,2013-09-24 06:22:00,
2013-09-23 23:32:00,-999.0,-99.9,-100.00,North,-999,1.0,-999.0,-999,-99.99,,,-99.99,,2013-09-24 06:32:00,
2013-09-23 23:42:00,-999.0,-99.9,-100.00,NW,326,4.0,-999.0,-999,-99.99,,,-99.99,,2013-09-24 06:42:00,
2013-09-23 23:52:00,-999.0,-99.9,-100.00,NW,326,4.0,-999.0,-999,-99.99,,,-99.99,,2013-09-24 06:52:00,